DB0TGO-14 Weather Reports


Display with metric or nautical units.
time (UTC)temp
F
wind
direction
speed
MPH
gust
MPH
rain 1hr
in
rain 24hr
in
rain mn
in
humidity
%
barometer
mb
20260903165652 67 225 3.0 15.0 0.00 0.05 0.00 85 1014.5
20260903165518 67 225 3.0 15.0 0.00 0.05 0.00 85 1014.5
20260903165500 67 225 3.0 15.0 0.00 0.05 0.00 85 1014.5
20260903165306 67 202 3.0 15.0 0.00 0.05 0.00 85 1014.5
20260903165115 67 270 4.0 15.0 0.00 0.05 0.00 85 1014.6
20260903164935 67 292 4.0 15.0 0.00 0.05 0.00 86 1014.5
20260903164747 67 270 4.0 15.0 0.00 0.05 0.00 86 1014.5
20260903164605 67 270 3.0 15.0 0.00 0.05 0.00 86 1014.5
20260903164405 67 248 3.0 15.0 0.00 0.05 0.00 86 1014.6
20260903164205 67 248 3.0 15.0 0.00 0.05 0.00 86 1014.5
20260903164010 67 225 3.0 15.0 0.00 0.05 0.00 86 1014.6
20260903163829 67 202 2.0 15.0 0.00 0.05 0.00 86 1014.6
20260903163722 67 202 3.0 15.0 0.00 0.05 0.00 86 1014.6
20260903163653 67 202 3.0 15.0 0.00 0.05 0.00 86 1014.6
20260903163512 67 270 3.0 15.0 0.00 0.05 0.00 86 1014.5
20260903163320 67 292 3.0 15.0 0.00 0.05 0.00 86 1014.6
20260903163125 67 292 3.0 15.0 0.00 0.05 0.00 86 1014.6
20260903162925 67 225 4.0 15.0 0.00 0.05 0.00 86 1014.6
20260903162730 67 248 4.0 15.0 0.00 0.05 0.00 86 1014.7
20260903162536 67 270 4.0 15.0 0.00 0.05 0.00 85 1014.6
20260903162345 67 292 4.0 15.0 0.00 0.05 0.00 85 1014.8
20260903162150 67 270 4.0 15.0 0.00 0.05 0.00 85 1014.8
20260903162010 67 270 4.0 15.0 0.00 0.05 0.00 85 1014.8
20260903161938 67 225 4.0 15.0 0.00 0.05 0.00 85 1014.7
20260903161825 67 270 4.0 15.0 0.00 0.05 0.00 84 1014.8
20260903161625 67 292 5.0 15.0 0.00 0.05 0.00 84 1014.8
20260903161425 68 248 5.0 15.0 0.00 0.05 0.00 84 1014.8
20260903161225 68 248 5.0 15.0 0.00 0.05 0.00 83 1014.8
20260903161030 68 225 4.0 15.0 0.00 0.05 0.00 82 1014.8
20260903160850 68 248 4.0 15.0 0.00 0.05 0.00 82 1014.9
20260903160700 68 225 4.0 15.0 0.00 0.05 0.00 81 1014.9
20260903160510 68 270 5.0 15.0 0.00 0.05 0.00 81 1014.8
20260903160325 68 202 4.0 15.0 0.00 0.05 0.00 81 1014.7
20260903160248 68 202 4.0 15.0 0.00 0.05 0.00 81 1014.9
20260903160135 68 180 4.0 15.0 0.00 0.05 0.00 81 1014.8
20260903155940 68 225 5.0 15.0 0.00 0.05 0.00 80 1014.9
20260903155750 68 225 4.0 15.0 0.00 0.05 0.00 79 1014.9
20260903155605 68 248 4.0 15.0 0.00 0.05 0.00 79 1014.9
20260903155425 68 225 4.0 15.0 0.00 0.05 0.00 79 1014.9
20260903155245 68 248 4.0 15.0 0.00 0.05 0.00 79 1014.9
20260903155043 69 202 5.0 15.0 0.00 0.05 0.00 78 1014.8
20260903154900 69 225 5.0 15.0 0.00 0.05 0.00 79 1014.8
20260903154715 69 225 6.0 15.0 0.00 0.05 0.00 78 1014.8
20260903154513 69 225 7.0 15.0 0.00 0.05 0.00 78 1014.9
20260903154430 69 270 7.0 15.0 0.00 0.05 0.00 78 1014.9
20260903154318 70 248 7.0 15.0 0.00 0.05 0.00 78 1014.9
20260903154142 70 248 8.0 15.0 0.00 0.05 0.00 78 1014.8
20260903153955 70 225 9.0 15.0 0.00 0.05 0.00 77 1014.8
20260903153810 71 292 9.0 15.0 0.00 0.05 0.00 75 1014.9
20260903153629 71 248 9.0 18.0 0.00 0.05 0.00 74 1014.9
20260903153445 71 225 9.0 18.0 0.00 0.05 0.00 72 1015.1
20260903153255 72 225 9.0 18.0 0.00 0.05 0.00 71 1015.0
20260903153100 72 248 9.0 16.0 0.00 0.05 0.00 69 1015.0
20260903152920 72 248 9.0 16.0 0.00 0.05 0.00 67 1015.0
20260903152740 72 202 9.0 16.0 0.00 0.05 0.00 66 1015.0
20260903152632 72 225 8.0 15.0 0.00 0.05 0.00 65 1014.9
20260903152600 72 202 8.0 15.0 0.00 0.05 0.00 65 1014.8
20260903152402 72 248 8.0 15.0 0.00 0.05 0.00 65 1014.9
20260903152210 72 202 8.0 15.0 0.00 0.05 0.00 64 1014.9
20260903152035 73 225 8.0 16.0 0.00 0.05 0.00 64 1014.8
20260903151855 73 225 8.0 16.0 0.00 0.05 0.00 63 1014.9
20260903151710 73 202 8.0 16.0 0.00 0.05 0.00 63 1014.8
20260903151520 73 248 7.0 13.0 0.00 0.05 0.00 62 1014.9
20260903151325 73 248 7.0 11.0 0.00 0.05 0.00 62 1014.7
20260903151125 73 292 7.0 11.0 0.00 0.05 0.00 62 1014.8
20260903151012 73 248 6.0 11.0 0.00 0.05 0.00 63 1014.8
20260903150932 73 248 6.0 11.0 0.00 0.05 0.00 63 1014.8
20260903150755 73 292 6.0 11.0 0.00 0.05 0.00 62 1014.8
20260903150615 73 202 6.0 11.0 0.00 0.05 0.00 62 1014.7
20260903150425 73 270 5.0 11.0 0.00 0.05 0.00 62 1014.6
20260903150240 73 248 5.0 11.0 0.00 0.05 0.00 62 1014.8
20260903150040 73 270 5.0 7.0 0.00 0.05 0.00 62 1014.7
20260903145848 73 248 5.0 8.0 0.00 0.05 0.00 62 1014.6
20260903145655 73 202 6.0 8.0 0.00 0.05 0.00 61 1014.6
20260903145500 73 292 6.0 10.0 0.00 0.05 0.00 61 1014.5
20260903145316 73 202 6.0 10.0 0.00 0.05 0.00 61 1014.6
20260903145157 73 270 6.0 10.0 0.00 0.05 0.00 61 1014.7
20260903145130 73 248 6.0 11.0 0.00 0.05 0.00 61 1014.5
20260903144948 73 248 6.0 11.0 0.00 0.05 0.00 61 1014.7
20260903144810 73 270 6.0 11.0 0.00 0.05 0.00 61 1014.8
20260903144625 73 225 7.0 11.0 0.00 0.05 0.00 61 1014.8
20260903144440 73 270 7.0 11.0 0.00 0.05 0.00 61 1014.8
20260903144241 73 202 7.0 11.0 0.00 0.05 0.00 61 1014.8
20260903144055 73 225 7.0 15.0 0.00 0.05 0.00 61 1014.8
20260903143859 73 248 7.0 15.0 0.00 0.05 0.00 61 1014.7
20260903143715 73 225 7.0 15.0 0.00 0.05 0.00 61 1014.8
20260903143520 73 225 6.0 12.0 0.00 0.05 0.00 60 1014.8
20260903143340 73 248 6.0 12.0 0.00 0.05 0.00 61 1014.8
20260903143322 73 315 6.0 12.0 0.00 0.05 0.00 61 1014.8
20260903143150 73 202 6.0 12.0 0.00 0.05 0.00 60 1014.8
20260903143010 73 225 6.0 12.0 0.00 0.05 0.00 61 1014.8
20260903142825 73 225 6.0 7.0 0.00 0.05 0.00 61 1014.8
20260903142630 73 248 5.0 7.0 0.00 0.05 0.00 61 1014.8
20260903142447 73 225 5.0 8.0 0.00 0.05 0.00 62 1014.7
20260903142310 73 270 5.0 8.0 0.00 0.05 0.00 62 1014.8
20260903142110 73 248 5.0 8.0 0.00 0.05 0.00 61 1014.8
20260903141915 72 202 5.0 7.0 0.00 0.05 0.00 61 1014.8
20260903141740 72 202 5.0 7.0 0.00 0.05 0.00 62 1014.8
20260903141555 72 248 4.0 7.0 0.00 0.05 0.00 61 1014.8
20260903141410 72 270 4.0 7.0 0.00 0.05 0.00 62 1014.8
20260903141220 72 248 4.0 7.0 0.00 0.05 0.00 63 1014.9
20260903141022 72 225 4.0 7.0 0.00 0.05 0.00 63 1014.9
20260903140853 72 180 4.0 7.0 0.00 0.05 0.00 64 1015.0
20260903140640 72 248 4.0 7.0 0.00 0.05 0.00 64 1015.0
20260903140628 72 202 4.0 7.0 0.00 0.05 0.00 64 1015.0
20260903140334 72 315 5.0 7.0 0.00 0.05 0.00 64 1014.9
20260903140116 72 270 5.0 13.0 0.00 0.05 0.00 63 1015.0
20260903140048 72 270 5.0 13.0 0.00 0.05 0.00 63 1015.0
20260903135934 72 248 6.0 13.0 0.00 0.05 0.00 64 1015.0
20260903135755 72 225 6.0 13.0 0.00 0.05 0.00 63 1015.0
20260903135603 72 248 6.0 13.0 0.00 0.05 0.00 63 1015.1
20260903135458 72 248 6.0 13.0 0.00 0.05 0.00 63 1015.1
20260903135244 72 248 6.0 13.0 0.00 0.05 0.00 63 1015.0
20260903134939 72 225 8.0 14.0 0.00 0.05 0.00 63 1015.2
20260903134645 72 225 8.0 14.0 0.00 0.05 0.00 63 1015.2
20260903134535 72 225 8.0 14.0 0.00 0.05 0.00 63 1015.2
20260903134319 72 225 8.0 14.0 0.00 0.05 0.00 63 1015.2
20260903134221 72 225 8.0 14.0 0.00 0.05 0.00 63 1015.2
20260903134011 72 225 8.0 14.0 0.00 0.05 0.00 63 1015.2
20260903133744 72 225 8.0 14.0 0.00 0.05 0.00 63 1015.2
20260903133525 72 225 8.0 14.0 0.00 0.05 0.00 63 1015.2
20260903133224 72 202 8.0 15.0 0.00 0.05 0.00 64 1015.2
20260903133033 72 202 8.0 15.0 0.00 0.05 0.00 64 1015.2
20260903132845 72 202 8.0 15.0 0.00 0.05 0.00 64 1015.2
20260903132712 72 248 8.0 17.0 0.00 0.05 0.00 62 1015.2
20260903132531 72 158 8.0 17.0 0.00 0.05 0.00 62 1015.2
20260903132515 72 158 8.0 17.0 0.00 0.05 0.00 62 1015.2
20260903132325 73 292 8.0 17.0 0.00 0.05 0.00 60 1015.2
20260903132158 73 225 7.0 14.0 0.00 0.05 0.00 60 1015.0
20260903131944 73 225 7.0 14.0 0.00 0.05 0.00 60 1015.0
20260903131759 73 225 6.0 13.0 0.00 0.05 0.00 63 1015.0
20260903131555 73 248 7.0 13.0 0.00 0.05 0.00 60 1015.0
20260903131405 73 225 6.0 13.0 0.00 0.05 0.00 59 1014.9
20260903131215 73 270 6.0 13.0 0.00 0.05 0.00 59 1014.9
20260903131025 73 248 6.0 10.0 0.00 0.05 0.00 58 1014.9
20260903130835 73 270 7.0 10.0 0.00 0.05 0.00 58 1015.0
20260903130819 73 292 7.0 10.0 0.00 0.05 0.00 58 1014.9
20260903130659 73 225 7.0 10.0 0.00 0.05 0.00 57 1015.0
20260903130459 73 248 7.0 10.0 0.00 0.05 0.00 58 1015.0
20260903130259 73 225 6.0 10.0 0.00 0.05 0.00 58 1014.9
20260903130110 73 225 6.0 10.0 0.00 0.05 0.00 58 1015.0
20260903125910 73 202 6.0 11.0 0.00 0.05 0.00 59 1015.0
20260903125725 73 248 6.0 11.0 0.00 0.05 0.00 59 1015.0
20260903125525 73 270 6.0 9.0 0.00 0.05 0.00 59 1015.0
20260903125338 73 270 7.0 9.0 0.00 0.05 0.00 59 1015.0
20260903125150 73 248 8.0 15.0 0.00 0.05 0.00 59 1015.1
20260903125133 73 270 8.0 15.0 0.00 0.05 0.00 59 1015.2
20260903124959 73 292 8.0 15.0 0.00 0.05 0.00 59 1015.1
20260903124800 73 202 8.0 13.0 0.00 0.05 0.00 59 1015.1
20260903124605 73 248 7.0 13.0 0.00 0.05 0.00 59 1015.2
20260903124419 72 225 7.0 11.0 0.00 0.05 0.00 60 1015.2
20260903124235 72 270 7.0 11.0 0.00 0.05 0.00 59 1015.2
20260903124035 72 292 7.0 12.0 0.00 0.05 0.00 60 1015.1
20260903123851 72 270 7.0 12.0 0.00 0.05 0.00 60 1015.1
20260903123715 72 248 7.0 12.0 0.00 0.05 0.00 59 1015.1
20260903123525 72 248 7.0 11.0 0.00 0.05 0.00 60 1015.2
20260903123325 72 202 7.0 11.0 0.00 0.05 0.00 61 1015.2
20260903123139 72 270 7.0 10.0 0.00 0.05 0.00 62 1015.3
20260903122940 72 180 7.0 11.0 0.00 0.05 0.00 61 1015.3
20260903122749 72 225 7.0 11.0 0.00 0.05 0.00 61 1015.3
20260903122605 72 248 7.0 11.0 0.00 0.05 0.00 60 1015.3
20260903122405 71 202 8.0 13.0 0.00 0.05 0.00 60 1015.4
20260903122210 71 248 7.0 13.0 0.00 0.05 0.00 60 1015.4
20260903122019 71 225 7.0 13.0 0.00 0.05 0.00 60 1015.4
20260903121932 71 225 7.0 11.0 0.00 0.05 0.00 60 1015.3
20260903121839 71 225 7.0 11.0 0.00 0.05 0.00 61 1015.4
20260903121645 71 180 7.0 11.0 0.00 0.05 0.00 61 1015.5
20260903121445 71 225 7.0 11.0 0.00 0.05 0.00 62 1015.5
20260903121254 71 248 7.0 11.0 0.00 0.05 0.00 63 1015.5
20260903121059 71 248 7.0 11.0 0.00 0.05 0.00 63 1015.5
20260903120915 71 248 8.0 11.0 0.00 0.05 0.00 62 1015.5
20260903120730 71 225 7.0 11.0 0.00 0.05 0.00 62 1015.7
20260903120548 71 225 7.0 11.0 0.00 0.05 0.00 62 1015.7
20260903120405 71 292 7.0 11.0 0.00 0.05 0.00 62 1015.5
20260903120219 71 248 7.0 11.0 0.00 0.05 0.00 62 1015.6
20260903120046 71 225 7.0 11.0 0.00 0.05 0.00 62 1015.6
20260903120033 71 202 7.0 11.0 0.00 0.05 0.00 62 1015.6
20260903115854 71 202 8.0 11.0 0.00 0.05 0.00 62 1015.6
20260903115659 71 158 8.0 11.0 0.00 0.05 0.00 62 1015.6
20260903115511 71 202 8.0 12.0 0.00 0.05 0.00 62 1015.7
20260903115315 71 158 8.0 12.0 0.00 0.05 0.00 63 1015.7
20260903115124 71 225 8.0 12.0 0.00 0.05 0.00 61 1015.8
20260903114928 71 225 8.0 11.0 0.00 0.05 0.00 61 1015.8
20260903114745 71 225 7.0 11.0 0.00 0.05 0.00 61 1015.8
20260903114555 71 225 7.0 11.0 0.00 0.05 0.00 61 1015.7
20260903114359 71 248 7.0 11.0 0.00 0.05 0.00 61 1015.9
20260903114219 71 225 7.0 11.0 0.00 0.05 0.00 61 1016.0
20260903114145 71 225 7.0 11.0 0.00 0.05 0.00 62 1015.9
20260903114039 71 248 7.0 11.0 0.00 0.05 0.00 61 1016.0
20260903113845 71 248 7.0 12.0 0.00 0.05 0.00 62 1016.1
20260903113645 71 270 7.0 12.0 0.00 0.05 0.00 62 1016.0
20260903113455 71 248 7.0 11.0 0.00 0.05 0.00 61 1016.2
20260903113255 71 248 6.0 11.0 0.00 0.05 0.00 61 1016.2
20260903113115 71 248 7.0 11.0 0.00 0.05 0.00 62 1016.1
20260903112935 71 292 7.0 11.0 0.00 0.05 0.00 62 1016.2
20260903112740 70 248 7.0 13.0 0.00 0.05 0.00 62 1016.2
20260903112555 70 270 7.0 13.0 0.00 0.05 0.00 62 1016.1
20260903112419 70 248 7.0 13.0 0.00 0.05 0.00 61 1016.1
20260903112244 69 248 6.0 12.0 0.00 0.05 0.00 62 1016.1
20260903112219 69 180 6.0 12.0 0.00 0.05 0.00 62 1016.1
20260903112032 69 202 7.0 12.0 0.00 0.05 0.00 63 1016.1
20260903111854 69 225 7.0 12.0 0.00 0.05 0.00 63 1016.1
20260903111710 69 248 7.0 11.0 0.00 0.05 0.00 67 1016.2
20260903111530 69 225 7.0 11.0 0.00 0.05 0.00 67 1016.1
20260903111350 69 202 7.0 11.0 0.00 0.05 0.00 66 1016.2
20260903111210 69 248 8.0 11.0 0.00 0.05 0.00 66 1016.2
20260903111029 69 180 7.0 11.0 0.00 0.05 0.00 67 1016.2
20260903110840 69 225 7.0 17.0 0.00 0.05 0.00 69 1016.2
20260903110650 69 180 7.0 17.0 0.00 0.05 0.00 69 1016.2
20260903110637 69 202 7.0 17.0 0.00 0.05 0.00 69 1016.3
20260903110450 69 180 7.0 17.0 0.00 0.05 0.00 65 1016.4
20260903110305 69 225 7.0 12.0 0.00 0.05 0.00 65 1016.2
20260903110120 69 248 7.0 12.0 0.00 0.05 0.00 66 1016.2
20260903105939 69 225 7.0 12.0 0.00 0.05 0.00 66 1016.1
20260903105755 69 202 6.0 11.0 0.00 0.05 0.00 66 1016.3
20260903105609 69 225 7.0 11.0 0.00 0.05 0.00 65 1016.3
20260903105415 69 292 7.0 11.0 0.00 0.05 0.00 66 1016.3
20260903105226 69 248 7.0 11.0 0.00 0.05 0.00 65 1016.3
20260903105043 69 202 6.0 13.0 0.00 0.05 0.00 65 1016.2
20260903104922 69 248 7.0 13.0 0.00 0.05 0.00 65 1016.2
20260903104845 69 202 6.0 13.0 0.00 0.05 0.00 65 1016.3
20260903104705 69 248 6.0 13.0 0.00 0.05 0.00 65 1016.2
20260903104515 69 202 6.0 11.0 0.00 0.05 0.00 66 1016.4
20260903104335 69 225 6.0 9.0 0.00 0.05 0.00 65 1016.3
20260903104148 69 202 6.0 9.0 0.00 0.05 0.00 66 1016.4
20260903103957 69 248 6.0 11.0 0.00 0.05 0.00 67 1016.4
20260903103805 69 270 6.0 11.0 0.00 0.05 0.00 66 1016.4
20260903103605 69 180 6.0 11.0 0.00 0.05 0.00 65 1016.3
20260903103430 69 225 6.0 11.0 0.00 0.05 0.00 65 1016.5
20260903103250 69 248 6.0 10.0 0.00 0.05 0.00 65 1016.5
20260903103105 69 248 6.0 10.0 0.00 0.05 0.00 65 1016.5
20260903103052 68 180 6.0 9.0 0.00 0.05 0.00 66 1016.5
20260903102910 68 202 6.0 9.0 0.00 0.05 0.00 66 1016.6
20260903102715 68 270 6.0 9.0 0.00 0.05 0.00 66 1016.6
20260903102515 68 248 6.0 11.0 0.00 0.05 0.00 66 1016.6
20260903102330 68 202 6.0 11.0 0.00 0.05 0.00 66 1016.7
20260903102150 68 202 6.0 11.0 0.00 0.05 0.00 66 1016.7
20260903101950 68 202 6.0 11.0 0.00 0.05 0.00 66 1016.7
20260903101749 68 180 6.0 9.0 0.00 0.05 0.00 67 1016.8
20260903101609 68 202 6.0 9.0 0.00 0.05 0.00 65 1016.7
20260903101458 68 202 6.0 9.0 0.00 0.05 0.00 65 1016.7
20260903101415 68 68 6.0 9.0 0.00 0.05 0.00 66 1016.7
20260903101219 68 202 6.0 15.0 0.00 0.05 0.00 66 1016.8
20260903101030 68 270 6.0 15.0 0.00 0.05 0.00 67 1016.8
20260903100849 68 202 6.0 15.0 0.00 0.05 0.00 67 1016.8
20260903100705 68 202 6.0 15.0 0.00 0.05 0.00 66 1016.8
20260903100510 68 248 6.0 12.0 0.00 0.05 0.00 66 1016.8
20260903100330 68 180 6.0 12.0 0.00 0.05 0.00 66 1016.8
20260903100150 68 225 5.0 9.0 0.00 0.05 0.00 67 1016.9
20260903100000 68 202 5.0 9.0 0.00 0.05 0.00 66 1017.0
20260903095825 68 202 5.0 7.0 0.00 0.05 0.00 68 1017.0
20260903095644 68 180 5.0 9.0 0.00 0.05 0.00 67 1017.1
20260903095511 68 158 5.0 11.0 0.00 0.05 0.00 67 1017.0
20260903095338 68 158 5.0 11.0 0.00 0.05 0.00 67 1017.1
20260903095153 68 158 5.0 11.0 0.00 0.05 0.00 67 1017.1
20260903094929 68 248 5.0 8.0 0.00 0.05 0.00 66 1017.1
20260903094736 68 202 5.0 8.0 0.00 0.05 0.00 67 1017.3
20260903094545 68 180 6.0 10.0 0.00 0.05 0.00 67 1017.3
20260903094355 68 270 6.0 10.0 0.00 0.05 0.00 67 1017.3
20260903094215 68 248 6.0 10.0 0.00 0.05 0.00 67 1017.3
20260903094020 68 248 6.0 10.0 0.00 0.05 0.00 66 1017.4
20260903093952 68 180 6.0 10.0 0.00 0.05 0.00 66 1017.3
20260903093835 68 248 6.0 10.0 0.00 0.05 0.00 66 1017.3
20260903093640 68 292 6.0 10.0 0.00 0.05 0.00 67 1017.4
20260903093455 68 338 6.0 11.0 0.00 0.05 0.00 67 1017.4
20260903093310 68 225 6.0 11.0 0.00 0.05 0.00 67 1017.4
20260903093130 68 248 6.0 11.0 0.00 0.05 0.00 66 1017.4
20260903092935 68 225 6.0 10.0 0.00 0.05 0.00 67 1017.4
20260903092750 68 202 6.0 10.0 0.00 0.05 0.00 67 1017.4
20260903092606 68 248 6.0 10.0 0.00 0.05 0.00 67 1017.4
20260903092420 68 225 6.0 10.0 0.00 0.05 0.00 66 1017.4
20260903092225 68 202 6.0 10.0 0.00 0.05 0.00 66 1017.4
20260903092047 68 202 6.0 10.0 0.00 0.05 0.00 66 1017.4
20260903091849 68 248 7.0 10.0 0.00 0.05 0.00 66 1017.4
20260903091655 68 248 7.0 8.0 0.00 0.05 0.00 66 1017.5
20260903091502 68 248 7.0 11.0 0.00 0.05 0.00 67 1017.6
20260903091325 68 225 7.0 13.0 0.00 0.05 0.00 67 1017.6
20260903091145 68 248 7.0 13.0 0.00 0.05 0.00 67 1017.7
20260903090954 68 202 7.0 13.0 0.00 0.05 0.00 66 1017.7
20260903090758 68 202 7.0 12.0 0.00 0.05 0.00 69 1017.6
20260903090620 68 270 7.0 12.0 0.00 0.05 0.00 68 1017.7
20260903090420 68 225 6.0 10.0 0.00 0.05 0.00 68 1017.7
20260903090336 68 202 6.0 10.0 0.00 0.05 0.00 68 1017.7
20260903090235 68 248 6.0 9.0 0.00 0.05 0.00 68 1017.7
20260903090040 68 202 6.0 9.0 0.00 0.05 0.00 69 1017.7
20260903085849 67 292 6.0 9.0 0.00 0.05 0.00 69 1017.7
20260903085710 67 248 6.0 7.0 0.00 0.05 0.00 69 1017.7
20260903085528 67 225 6.0 7.0 0.00 0.05 0.00 69 1017.8
20260903085340 67 225 6.0 7.0 0.00 0.05 0.00 70 1017.8
20260903085150 67 225 6.0 12.0 0.00 0.05 0.00 70 1017.7
20260903085000 67 202 6.0 12.0 0.00 0.05 0.00 70 1017.7
20260903084805 67 270 6.0 12.0 0.00 0.05 0.00 70 1017.7
20260903084605 67 248 6.0 12.0 0.00 0.05 0.00 69 1017.6
20260903084449 67 180 6.0 9.0 0.00 0.05 0.00 70 1017.8
20260903084410 67 180 6.0 9.0 0.00 0.05 0.00 70 1017.8
20260903084225 67 248 5.0 9.0 0.00 0.05 0.00 70 1017.8
20260903084030 67 225 5.0 10.0 0.00 0.05 0.00 71 1017.8
20260903083850 67 248 5.0 10.0 0.00 0.05 0.00 72 1017.8
20260903083710 67 248 5.0 10.0 0.00 0.05 0.00 72 1017.9
20260903083520 67 225 4.0 9.0 0.00 0.05 0.00 73 1017.9
20260903083335 67 158 4.0 9.0 0.00 0.05 0.00 73 1017.8
20260903083150 66 292 4.0 9.0 0.00 0.05 0.00 73 1017.9
20260903082959 66 225 4.0 9.0 0.00 0.05 0.00 74 1017.8
20260903082822 66 225 4.0 9.0 0.00 0.05 0.00 73 1017.9
20260903082800 66 225 4.0 9.0 0.00 0.05 0.00 73 1017.9
20260903082605 66 202 5.0 9.0 0.00 0.05 0.00 74 1017.9
20260903082415 66 180 5.0 10.0 0.00 0.05 0.00 73 1017.9
20260903082220 66 202 6.0 10.0 0.00 0.05 0.00 73 1017.9
20260903082040 66 202 6.0 10.0 0.00 0.05 0.00 74 1017.9
20260903081855 66 202 6.0 10.0 0.00 0.05 0.00 74 1017.9
20260903081710 66 225 6.0 10.0 0.00 0.05 0.00 74 1017.9
20260903081533 66 202 6.0 10.0 0.00 0.05 0.00 73 1018.0
20260903081345 66 158 6.0 10.0 0.00 0.05 0.00 73 1017.9
20260903081143 66 202 5.0 10.0 0.00 0.05 0.00 73 1018.0
20260903081027 66 202 5.0 8.0 0.00 0.05 0.00 74 1018.0
20260903080824 65 180 5.0 8.0 0.00 0.05 0.00 74 1018.0
20260903080635 65 158 5.0 8.0 0.00 0.05 0.00 74 1018.0
20260903080455 65 158 5.0 8.0 0.00 0.05 0.00 75 1018.0
20260903080315 65 180 5.0 8.0 0.00 0.05 0.00 75 1018.1
20260903080125 65 225 6.0 9.0 0.00 0.05 0.00 74 1018.1
20260903075935 65 158 6.0 9.0 0.00 0.05 0.00 75 1018.1
20260903075745 65 202 6.0 9.0 0.00 0.05 0.00 75 1018.1
20260903075555 65 202 5.0 9.0 0.00 0.05 0.00 75 1018.0
20260903075431 65 202 6.0 9.0 0.00 0.05 0.00 75 1018.0
20260903075400 65 202 6.0 9.0 0.00 0.05 0.00 75 1018.0
20260903075205 65 180 5.0 9.0 0.00 0.05 0.00 75 1018.1
20260903075029 65 202 5.0 9.0 0.00 0.05 0.00 75 1018.1
20260903074840 65 158 5.0 9.0 0.00 0.05 0.00 76 1018.2
20260903074705 65 248 5.0 9.0 0.00 0.05 0.00 75 1018.2
20260903074520 65 180 5.0 9.0 0.00 0.05 0.00 76 1018.3
20260903074343 65 180 5.0 9.0 0.00 0.05 0.00 75 1018.2
20260903074143 65 202 5.0 8.0 0.00 0.05 0.00 76 1018.2
20260903073948 65 248 5.0 8.0 0.00 0.05 0.00 75 1018.2
20260903073842 65 158 5.0 5.0 0.00 0.05 0.00 76 1018.2
20260903073755 65 225 5.0 6.0 0.00 0.05 0.00 76 1018.2
20260903073600 65 270 5.0 8.0 0.00 0.05 0.00 77 1018.2
20260903073410 65 248 5.0 8.0 0.00 0.05 0.00 76 1018.2
20260903073230 65 270 5.0 8.0 0.00 0.05 0.00 75 1018.2
20260903073045 65 248 4.0 7.0 0.00 0.05 0.00 76 1018.3
20260903072850 65 248 4.0 8.0 0.00 0.05 0.00 76 1018.3
20260903072655 65 225 4.0 8.0 0.00 0.05 0.00 76 1018.3
20260903072505 65 202 4.0 6.0 0.00 0.05 0.00 77 1018.3
20260903072315 65 202 4.0 6.0 0.00 0.05 0.00 77 1018.3
20260903072127 65 202 4.0 9.0 0.00 0.05 0.00 77 1018.3
20260903071950 65 180 5.0 9.0 0.00 0.05 0.00 76 1018.4
20260903071750 65 248 5.0 9.0 0.00 0.05 0.00 77 1018.3
20260903071605 65 180 5.0 7.0 0.00 0.05 0.00 77 1018.4
20260903071405 65 270 4.0 6.0 0.00 0.05 0.00 77 1018.3
20260903071210 65 202 4.0 6.0 0.00 0.05 0.00 77 1018.3
20260903071030 65 180 5.0 6.0 0.00 0.05 0.00 77 1018.4
20260903070845 65 225 4.0 8.0 0.00 0.05 0.00 77 1018.4
20260903070705 64 225 4.0 8.0 0.00 0.05 0.00 77 1018.4
20260903070525 64 292 4.0 8.0 0.00 0.05 0.00 78 1018.3
20260903070325 64 158 4.0 8.0 0.00 0.05 0.00 78 1018.3
20260903070302 64 225 4.0 8.0 0.00 0.05 0.00 77 1018.3
20260903070145 64 202 4.0 6.0 0.00 0.05 0.00 77 1018.3
20260903065948 64 202 4.0 9.0 0.00 0.05 0.00 77 1018.3
20260903065800 64 180 4.0 9.0 0.00 0.05 0.00 78 1018.3
20260903065600 64 225 4.0 6.0 0.00 0.05 0.00 78 1018.4
20260903065405 64 248 4.0 8.0 0.00 0.05 0.00 78 1018.5
20260903065220 63 292 4.0 8.0 0.00 0.05 0.00 79 1018.5
20260903065044 63 202 4.0 8.0 0.00 0.05 0.00 79 1018.4
20260903064905 63 248 5.0 8.0 0.00 0.05 0.00 79 1018.4
20260903064722 63 248 4.0 8.0 0.00 0.05 0.00 79 1018.5
20260903064530 63 248 4.0 8.0 0.00 0.05 0.00 79 1018.5
20260903064501 63 225 4.0 8.0 0.00 0.05 0.00 79 1018.5
20260903064425 63 225 4.0 8.0 0.00 0.05 0.00 79 1018.5
20260903064340 63 202 4.0 8.0 0.00 0.05 0.00 79 1018.5
20260903064208 63 292 4.0 8.0 0.00 0.05 0.00 80 1018.5
20260903064012 62 202 4.0 8.0 0.00 0.05 0.00 81 1018.6
20260903063825 62 225 4.0 8.0 0.00 0.05 0.00 81 1018.5
20260903063735 62 248 4.0 8.0 0.00 0.05 0.00 81 1018.5
20260903063450 62 202 4.0 8.0 0.00 0.05 0.00 81 1018.5
20260903063217 62 202 4.0 6.0 0.00 0.05 0.00 82 1018.5
20260903063103 62 248 4.0 7.0 0.00 0.05 0.00 82 1018.5
20260903062853 62 225 4.0 8.0 0.00 0.05 0.00 82 1018.5
20260903062745 62 225 4.0 8.0 0.00 0.05 0.00 82 1018.6
20260903062505 62 225 3.0 8.0 0.00 0.05 0.00 82 1018.6
20260903062350 61 248 3.0 6.0 0.00 0.05 0.00 83 1018.6
20260903062127 61 202 3.0 5.0 0.00 0.05 0.00 83 1018.7
20260903061930 61 202 3.0 5.0 0.00 0.05 0.00 83 1018.7
20260903061735 61 225 3.0 5.0 0.00 0.05 0.00 84 1018.6
20260903061627 61 225 4.0 8.0 0.00 0.05 0.00 84 1018.7
20260903061410 61 225 4.0 8.0 0.00 0.05 0.00 84 1018.7
20260903061230 61 225 4.0 8.0 0.00 0.05 0.00 83 1018.8
20260903061049 61 270 4.0 6.0 0.00 0.05 0.00 84 1018.8
20260903061000 61 270 4.0 6.0 0.00 0.05 0.00 84 1018.8
20260903060910 61 292 3.0 6.0 0.00 0.05 0.00 84 1018.8
20260903060730 61 248 3.0 5.0 0.00 0.05 0.00 85 1018.6
20260903060531 61 248 3.0 6.0 0.00 0.05 0.00 85 1018.7
20260903060345 61 248 3.0 6.0 0.00 0.05 0.00 85 1018.7
20260903060202 61 248 3.0 6.0 0.00 0.05 0.00 85 1018.7
20260903060023 60 248 3.0 6.0 0.00 0.05 0.00 85 1018.6
20260903055825 60 202 3.0 5.0 0.00 0.05 0.00 85 1018.7
20260903055650 60 180 3.0 5.0 0.00 0.05 0.00 85 1018.6
20260903055500 60 180 3.0 6.0 0.00 0.05 0.00 85 1018.6
20260903055306 60 180 3.0 6.0 0.00 0.05 0.00 85 1018.5
20260903055123 60 158 3.0 6.0 0.00 0.05 0.00 85 1018.6
20260903054935 60 225 3.0 6.0 0.00 0.05 0.00 85 1018.6
20260903054750 60 225 3.0 6.0 0.00 0.05 0.00 85 1018.6
20260903054610 60 202 3.0 5.0 0.00 0.05 0.00 85 1018.5
20260903054425 60 158 3.0 4.0 0.00 0.05 0.00 86 1018.5
20260903054235 60 225 3.0 5.0 0.00 0.05 0.00 86 1018.6
20260903054055 60 225 3.0 5.0 0.00 0.05 0.00 86 1018.7
20260903053858 60 202 3.0 5.0 0.00 0.05 0.00 86 1018.8
20260903053720 60 248 3.0 5.0 0.00 0.05 0.00 86 1018.9
20260903053520 60 248 2.0 4.0 0.00 0.05 0.00 86 1018.9
20260903053501 60 248 2.0 4.0 0.00 0.05 0.00 86 1018.8
20260903053330 60 248 2.0 4.0 0.00 0.05 0.00 86 1018.8
20260903053145 60 248 3.0 5.0 0.00 0.05 0.00 86 1018.9
20260903052945 60 202 2.0 5.0 0.00 0.05 0.00 86 1018.9
20260903052750 60 248 2.0 5.0 0.00 0.05 0.00 86 1018.9
20260903052550 60 248 2.0 5.0 0.00 0.05 0.00 86 1018.9
20260903052410 60 225 2.0 5.0 0.00 0.05 0.00 86 1019.0
20260903052210 60 248 3.0 5.0 0.00 0.05 0.00 86 1019.0
20260903052010 60 248 2.0 5.0 0.00 0.05 0.00 86 1019.0
20260903051811 60 248 2.0 5.0 0.00 0.05 0.00 86 1019.1
20260903051718 60 248 2.0 5.0 0.00 0.05 0.00 86 1019.0
20260903051625 60 248 3.0 5.0 0.00 0.05 0.00 86 1019.0
20260903051439 60 248 3.0 5.0 0.00 0.05 0.00 85 1019.0
20260903051300 60 248 3.0 5.0 0.00 0.05 0.00 86 1019.1
20260903051110 60 248 2.0 4.0 0.00 0.05 0.00 86 1019.1
20260903050920 60 248 2.0 5.0 0.00 0.05 0.00 85 1019.0
20260903050730 59 248 2.0 5.0 0.00 0.05 0.00 85 1019.0
20260903050549 59 248 2.0 5.0 0.00 0.05 0.00 86 1019.0
20260903050355 59 248 2.0 3.0 0.00 0.05 0.00 86 1019.0
20260903050155 59 248 2.0 4.0 0.00 0.05 0.00 86 1019.0
20260903050013 59 248 2.0 4.0 0.00 0.05 0.00 86 1019.0
20260903045948 59 248 2.0 4.0 0.00 0.05 0.00 86 1018.9
20260903045835 59 248 3.0 4.0 0.00 0.05 0.00 86 1019.0
20260903045650 59 248 3.0 4.0 0.00 0.05 0.00 86 1019.0
20260903045455 59 292 3.0 5.0 0.00 0.05 0.00 86 1018.9
20260903045306 59 248 4.0 5.0 0.00 0.05 0.00 86 1018.9
20260903045120 59 270 4.0 5.0 0.00 0.05 0.00 86 1018.8
20260903044935 59 225 4.0 5.0 0.00 0.05 0.00 86 1018.8
20260903044755 59 270 3.0 5.0 0.00 0.05 0.00 86 1018.8
20260903044610 59 248 3.0 5.0 0.00 0.05 0.00 86 1018.7
20260903044425 59 248 3.0 5.0 0.00 0.05 0.00 86 1018.8
20260903044235 59 225 3.0 5.0 0.00 0.05 0.00 86 1018.7
20260903044154 59 248 3.0 5.0 0.00 0.05 0.00 86 1018.7
20260903044052 59 180 3.0 5.0 0.00 0.05 0.00 86 1018.8
20260903043907 59 248 3.0 5.0 0.00 0.05 0.00 86 1018.8
20260903043710 59 225 3.0 5.0 0.00 0.05 0.00 86 1018.9
20260903043520 59 202 3.0 5.0 0.00 0.05 0.00 86 1018.8
20260903043339 59 225 3.0 5.0 0.00 0.05 0.00 86 1018.8
20260903043145 59 248 3.0 5.0 0.00 0.05 0.00 86 1018.8
20260903042955 59 248 3.0 5.0 0.00 0.05 0.00 86 1018.7
20260903042810 59 248 3.0 5.0 0.00 0.05 0.00 86 1018.8
20260903042615 59 248 2.0 5.0 0.00 0.05 0.00 86 1018.8
20260903042442 59 248 2.0 4.0 0.00 0.05 0.00 86 1018.7
20260903042420 59 248 2.0 4.0 0.00 0.05 0.00 87 1018.8
20260903042230 59 248 2.0 4.0 0.00 0.05 0.00 87 1018.8
20260903042040 59 248 2.0 4.0 0.00 0.05 0.00 87 1018.7
20260903041853 59 270 2.0 3.0 0.00 0.05 0.00 86 1018.8
20260903041655 59 270 3.0 5.0 0.00 0.05 0.00 86 1018.8
20260903041515 59 270 3.0 3.0 0.00 0.05 0.00 86 1018.8
20260903041320 59 248 3.0 5.0 0.00 0.05 0.00 86 1018.8
20260903041125 59 270 3.0 5.0 0.00 0.05 0.00 86 1018.8
20260903040945 59 248 2.0 5.0 0.00 0.05 0.00 86 1018.7
20260903040801 59 225 2.0 5.0 0.00 0.05 0.00 86 1018.7
20260903040638 59 225 2.0 5.0 0.00 0.05 0.00 86 1018.7
20260903040603 59 225 2.0 5.0 0.00 0.05 0.00 87 1018.8
20260903040415 59 292 2.0 5.0 0.00 0.05 0.00 87 1018.7
20260903040238 59 225 2.0 3.0 0.00 0.05 0.00 87 1018.7
20260903040058 59 225 2.0 5.0 0.00 0.05 0.00 87 1018.7
20260903035915 59 225 3.0 6.0 0.00 0.05 0.00 86 1018.8
20260903035730 59 225 3.0 6.0 0.00 0.05 0.00 86 1018.7
20260903035531 58 202 3.0 5.0 0.00 0.05 0.00 87 1018.7
20260903035345 58 248 3.0 5.0 0.00 0.05 0.00 87 1018.8
20260903035155 59 225 2.0 5.0 0.00 0.05 0.00 87 1018.8
20260903035015 59 248 3.0 5.0 0.00 0.05 0.00 87 1018.8
20260903035007 59 248 3.0 5.0 0.00 0.05 0.00 87 1018.8
20260903034835 59 248 3.0 5.0 0.00 0.05 0.00 87 1018.9
20260903034645 59 225 3.0 5.0 0.00 0.05 0.00 87 1018.9
20260903034505 59 225 3.0 5.0 0.00 0.05 0.00 87 1018.9
20260903034305 59 225 3.0 5.0 0.00 0.05 0.00 87 1018.9
20260903034105 59 225 3.0 5.0 0.00 0.05 0.00 87 1018.9
20260903033915 59 225 2.0 5.0 0.00 0.05 0.00 87 1018.8
20260903033720 59 202 2.0 5.0 0.00 0.05 0.00 87 1018.9
20260903033540 59 225 2.0 4.0 0.00 0.05 0.00 87 1018.8
20260903033345 58 248 2.0 5.0 0.00 0.05 0.00 87 1018.8
20260903033155 58 248 2.0 5.0 0.00 0.05 0.00 87 1018.9
20260903033108 58 248 1.0 5.0 0.00 0.05 0.00 87 1018.9
20260903033000 58 248 1.0 5.0 0.00 0.05 0.00 87 1018.9
20260903032800 58 225 1.0 5.0 0.00 0.05 0.00 88 1018.8
20260903032615 58 225 1.0 5.0 0.00 0.05 0.00 87 1018.8
20260903032415 58 225 1.0 5.0 0.00 0.05 0.00 87 1018.9
20260903032235 58 292 0.0 2.0 0.00 0.05 0.00 88 1018.9
20260903032050 58 292 0.0 2.0 0.00 0.05 0.00 88 1019.0
20260903031855 58 292 0.0 2.0 0.00 0.05 0.00 88 1019.0
20260903031715 58 292 0.0 2.0 0.00 0.05 0.00 88 1019.1
20260903031520 58 292 0.0 2.0 0.00 0.05 0.00 88 1019.2
20260903031325 58 292 0.0 2.0 0.00 0.05 0.00 88 1019.1
20260903031302 58 292 0.0 2.0 0.00 0.05 0.00 88 1019.1
20260903031140 58 292 0.0 2.0 0.00 0.05 0.00 88 1019.1
20260903030955 58 292 0.0 2.0 0.00 0.05 0.00 88 1019.1
20260903030815 58 292 1.0 2.0 0.00 0.05 0.00 88 1019.2
20260903030625 58 292 1.0 2.0 0.00 0.05 0.00 88 1019.1
20260903030457 58 270 2.0 5.0 0.00 0.05 0.00 88 1019.1
20260903025638 58 270 2.0 5.0 0.00 0.05 0.00 88 1019.1
20260903025249 58 270 2.0 5.0 0.00 0.05 0.00 88 1019.1
20260903024820 58 270 2.0 5.0 0.00 0.05 0.00 88 1019.1
20260903024650 58 270 2.0 5.0 0.00 0.05 0.00 88 1019.1
20260903023951 58 270 2.0 5.0 0.00 0.05 0.00 88 1019.1
20260903023739 58 270 2.0 5.0 0.00 0.05 0.00 88 1019.1
20260903023611 58 270 2.0 5.0 0.00 0.05 0.00 88 1019.1
20260903023438 58 270 2.0 4.0 0.00 0.05 0.00 88 1019.1
20260903023244 58 270 2.0 4.0 0.00 0.05 0.00 88 1019.1
20260903023118 58 270 2.0 4.0 0.00 0.05 0.00 88 1019.1
20260903022916 59 270 2.0 4.0 0.00 0.05 0.00 87 1019.2
20260903022710 59 270 2.0 5.0 0.00 0.05 0.00 87 1019.2
20260903022510 59 270 2.0 5.0 0.00 0.05 0.00 87 1019.2
20260903022320 59 270 2.0 4.0 0.00 0.05 0.00 87 1019.2
20260903022122 59 270 2.0 4.0 0.00 0.05 0.00 87 1019.3
20260903021950 59 270 2.0 4.0 0.00 0.05 0.00 87 1019.2
20260903021751 59 270 2.0 4.0 0.00 0.05 0.00 87 1019.2
20260903021600 59 270 2.0 4.0 0.00 0.05 0.00 87 1019.3
20260903021405 59 202 2.0 5.0 0.00 0.05 0.00 87 1019.2
20260903021210 59 225 2.0 5.0 0.00 0.05 0.00 87 1019.3
20260903021025 59 225 2.0 5.0 0.00 0.05 0.00 88 1019.2
20260903020840 59 248 1.0 4.0 0.00 0.05 0.00 87 1019.2
20260903020637 58 248 1.0 4.0 0.00 0.05 0.00 88 1019.2
20260903020455 58 270 1.0 2.0 0.00 0.05 0.00 88 1019.2
20260903020252 58 270 1.0 2.0 0.00 0.05 0.00 88 1019.2
20260903020120 58 270 1.0 4.0 0.00 0.05 0.00 88 1019.2
20260903015925 58 270 0.0 4.0 0.00 0.05 0.00 88 1019.2
20260903015730 58 270 0.0 4.0 0.00 0.05 0.00 88 1019.2
20260903015540 58 270 0.0 0.0 0.00 0.05 0.00 88 1019.1
20260903015405 58 270 0.0 2.0 0.00 0.05 0.00 88 1019.2
20260903015205 58 270 0.0 3.0 0.00 0.05 0.00 88 1019.2
20260903015030 58 270 1.0 3.0 0.00 0.05 0.00 88 1019.2
20260903014830 58 270 1.0 3.0 0.00 0.05 0.00 88 1019.3
20260903014650 58 248 0.0 3.0 0.00 0.05 0.00 89 1019.2
20260903014510 58 248 0.0 3.0 0.00 0.05 0.00 89 1019.3
20260903014437 58 248 0.0 3.0 0.00 0.05 0.00 89 1019.3
20260903014315 58 248 0.0 3.0 0.00 0.05 0.00 89 1019.2
20260903014125 59 248 0.0 2.0 0.00 0.05 0.00 89 1019.3
20260903013925 59 248 0.0 2.0 0.00 0.05 0.00 88 1019.3
20260903013735 59 248 0.0 3.0 0.00 0.05 0.00 88 1019.2
20260903013551 59 248 0.0 3.0 0.00 0.05 0.00 88 1019.3
20260903013405 59 248 1.0 3.0 0.00 0.05 0.00 88 1019.3
20260903013215 59 248 1.0 3.0 0.00 0.05 0.00 88 1019.3
20260903013031 59 248 1.0 3.0 0.00 0.05 0.00 88 1019.2
20260903012850 59 248 1.0 3.0 0.00 0.05 0.00 87 1019.3
20260903012650 59 248 1.0 3.0 0.00 0.05 0.00 87 1019.3
20260903012547 59 248 1.0 3.0 0.00 0.05 0.00 87 1019.4
20260903012457 59 248 1.0 3.0 0.00 0.05 0.00 87 1019.3
20260903012307 59 248 1.0 5.0 0.00 0.05 0.00 87 1019.2
20260903012115 59 248 2.0 5.0 0.00 0.05 0.00 87 1019.3
20260903011920 59 202 2.0 5.0 0.00 0.05 0.00 87 1019.3
20260903011735 59 248 2.0 3.0 0.00 0.05 0.00 87 1019.4
20260903011547 59 225 2.0 5.0 0.00 0.05 0.00 87 1019.4
20260903011357 59 225 2.0 6.0 0.00 0.05 0.00 87 1019.3
20260903011205 59 202 2.0 6.0 0.00 0.05 0.00 88 1019.3
20260903011025 58 270 2.0 5.0 0.00 0.05 0.00 88 1019.4
20260903010833 58 248 1.0 5.0 0.00 0.05 0.00 88 1019.4
20260903010722 58 248 1.0 5.0 0.00 0.05 0.00 88 1019.4
20260903010632 58 248 1.0 5.0 0.00 0.05 0.00 89 1019.3
20260903010455 58 225 0.0 5.0 0.00 0.05 0.00 90 1019.4
20260903010255 58 0 0.0 0.0 0.00 0.05 0.00 90 1019.5
20260903010110 58 0 0.0 0.0 0.00 0.05 0.00 90 1019.5
20260903005915 58 0 0.0 0.0 0.00 0.05 0.00 90 1019.3
20260903005725 58 0 0.0 0.0 0.00 0.05 0.00 90 1019.3
20260903005535 58 0 0.0 0.0 0.00 0.05 0.00 90 1019.3
20260903005355 58 0 0.0 0.0 0.00 0.05 0.00 90 1019.3
20260903005220 58 0 0.0 0.0 0.00 0.05 0.00 90 1019.4
20260903005035 58 0 0.0 0.0 0.00 0.05 0.00 90 1019.5
20260903005018 58 0 0.0 0.0 0.00 0.05 0.00 90 1019.5
20260903004840 58 0 0.0 0.0 0.00 0.05 0.00 91 1019.5
20260903004700 58 0 0.0 0.0 0.00 0.05 0.00 91 1019.3
20260903004512 58 0 0.0 0.0 0.00 0.05 0.00 91 1019.4
20260903004330 58 0 0.0 0.0 0.00 0.05 0.00 91 1019.4
20260903004150 58 0 0.0 0.0 0.00 0.05 0.00 91 1019.4
20260903004010 58 0 0.0 0.0 0.00 0.05 0.00 91 1019.4
20260903003816 58 0 0.0 0.0 0.00 0.05 0.00 91 1019.4
20260903003620 58 0 0.0 0.0 0.00 0.05 0.00 91 1019.4
20260903003420 58 0 0.0 0.0 0.00 0.05 0.00 91 1019.3
20260903003240 58 0 0.0 0.0 0.00 0.05 0.00 91 1019.3
20260903003128 58 0 0.0 0.0 0.00 0.05 0.00 91 1019.4
20260903003042 58 0 0.0 0.0 0.00 0.05 0.00 91 1019.3
20260903002850 58 0 0.0 0.0 0.00 0.05 0.00 91 1019.4
20260903002650 58 0 0.0 0.0 0.00 0.05 0.00 91 1019.4
20260903002450 58 0 0.0 0.0 0.00 0.05 0.00 91 1019.4
20260903002310 58 0 0.0 0.0 0.00 0.05 0.00 91 1019.4
20260903002132 58 0 0.0 0.0 0.00 0.05 0.00 91 1019.3
20260903001935 58 0 0.0 0.0 0.00 0.05 0.00 91 1019.4
20260903001740 58 0 0.0 0.0 0.00 0.05 0.00 91 1019.4
20260903001550 58 0 0.0 0.0 0.00 0.05 0.00 91 1019.4
20260903001410 58 0 0.0 0.0 0.00 0.05 0.00 91 1019.4
20260903001244 58 0 0.0 0.0 0.00 0.05 0.00 91 1019.3
20260903001225 58 0 0.0 0.0 0.00 0.05 0.00 91 1019.4
20260903001030 58 0 0.0 0.0 0.00 0.05 0.00 91 1019.4
20260903000830 58 0 0.0 0.0 0.00 0.05 0.00 91 1019.4
20260903000650 58 0 0.0 0.0 0.00 0.05 0.00 92 1019.5
20260903000510 58 0 0.0 2.0 0.00 0.05 0.00 92 1019.4
20260903000317 58 0 0.0 2.0 0.00 0.05 0.00 92 1019.5
20260903000130 58 0 0.0 2.0 0.00 0.05 0.00 92 1019.3
20260902235940 58 0 0.0 0.0 0.00 0.05 0.00 93 1019.4
20260902235750 58 0 0.0 0.0 0.00 0.05 0.00 93 1019.3
20260902235602 58 0 0.0 0.0 0.00 0.05 0.00 93 1019.5
20260902235420 58 0 0.0 0.0 0.00 0.05 0.00 93 1019.5
20260902235225 58 0 0.0 0.0 0.00 0.05 0.00 92 1019.4
20260902235040 58 0 0.0 0.0 0.00 0.05 0.00 92 1019.4
20260902234851 58 0 0.0 0.0 0.00 0.05 0.00 92 1019.4
20260902234656 58 0 0.0 0.0 0.00 0.05 0.00 92 1019.4
20260902234520 58 0 0.0 0.0 0.00 0.05 0.00 92 1019.4
20260902234335 58 0 0.0 0.0 0.00 0.05 0.00 92 1019.3
20260902234145 58 0 0.0 2.0 0.00 0.05 0.00 91 1019.4
20260902233945 59 0 0.0 2.0 0.00 0.05 0.00 91 1019.4
20260902233833 59 0 0.0 2.0 0.00 0.05 0.00 91 1019.4
20260902233755 59 0 0.0 2.0 0.00 0.05 0.00 91 1019.4
20260902233555 59 0 0.0 2.0 0.00 0.05 0.00 91 1019.4
20260902233410 59 0 0.0 2.0 0.00 0.05 0.00 90 1019.3
20260902233219 59 0 0.0 2.0 0.00 0.05 0.00 90 1019.3
20260902233030 59 0 0.0 2.0 0.00 0.05 0.00 90 1019.4
20260902232836 59 0 0.0 0.0 0.00 0.05 0.00 90 1019.3
20260902232654 59 0 0.0 0.0 0.00 0.05 0.00 90 1019.4
20260902232458 59 0 0.0 0.0 0.00 0.05 0.00 90 1019.4
20260902232306 59 0 0.0 0.0 0.00 0.05 0.00 90 1019.4
20260902232114 59 0 0.0 0.0 0.00 0.05 0.00 90 1019.4
20260902231930 59 0 0.0 0.0 0.00 0.05 0.00 90 1019.4
20260902231745 59 0 0.0 0.0 0.00 0.05 0.00 90 1019.4
20260902231600 59 0 0.0 0.0 0.00 0.05 0.00 90 1019.4
20260902231405 59 0 0.0 0.0 0.00 0.05 0.00 90 1019.4
20260902231223 59 0 0.0 0.0 0.00 0.05 0.00 90 1019.4
20260902231044 59 0 0.0 0.0 0.00 0.05 0.00 90 1019.4
20260902230850 59 0 0.0 2.0 0.00 0.05 0.00 90 1019.4
20260902230710 59 270 0.0 2.0 0.00 0.05 0.00 90 1019.5
20260902230510 59 270 0.0 2.0 0.00 0.05 0.00 90 1019.5
20260902230310 59 270 0.0 1.0 0.00 0.05 0.00 90 1019.4
20260902230124 59 270 0.0 1.0 0.00 0.05 0.00 90 1019.4
20260902230105 59 270 0.0 1.0 0.00 0.05 0.00 90 1019.4
20260902225944 59 270 0.0 2.0 0.00 0.05 0.00 90 1019.4
20260902225745 59 270 0.0 2.0 0.00 0.05 0.00 90 1019.4
20260902225547 59 0 0.0 2.0 0.00 0.05 0.00 90 1019.4
20260902225350 59 0 0.0 2.0 0.00 0.05 0.00 90 1019.4
20260902225150 59 0 0.0 0.0 0.00 0.05 0.00 90 1019.4
20260902224952 59 0 0.0 0.0 0.00 0.05 0.00 90 1019.4
20260902224755 59 0 0.0 0.0 0.00 0.05 0.00 90 1019.3
20260902224600 59 0 0.0 0.0 0.00 0.05 0.00 90 1019.3
20260902224425 59 0 0.0 0.0 0.00 0.05 0.00 90 1019.3
20260902224245 59 0 0.0 0.0 0.00 0.05 0.00 90 1019.3
20260902224222 59 0 0.0 0.0 0.00 0.05 0.00 90 1019.3
20260902224105 59 0 0.0 0.0 0.00 0.05 0.00 90 1019.4
20260902223910 59 0 0.0 0.0 0.00 0.05 0.00 90 1019.4
20260902223725 59 0 0.0 0.0 0.00 0.05 0.00 90 1019.4
20260902223540 59 0 0.0 0.0 0.00 0.05 0.00 90 1019.4
20260902223400 59 0 0.0 0.0 0.00 0.05 0.00 90 1019.4
20260902223200 59 0 0.0 0.0 0.00 0.05 0.00 91 1019.4
20260902223007 59 0 0.0 0.0 0.00 0.05 0.00 91 1019.4
20260902222815 59 0 0.0 0.0 0.00 0.05 0.00 91 1019.4
20260902222622 59 0 0.0 0.0 0.00 0.05 0.00 91 1019.4
20260902222550 59 0 0.0 0.0 0.00 0.05 0.00 91 1019.4
20260902222430 59 0 0.0 0.0 0.00 0.05 0.00 91 1019.4
20260902222245 59 0 0.0 0.0 0.00 0.05 0.00 91 1019.4
20260902222100 59 0 0.0 0.0 0.00 0.05 0.00 92 1019.4
20260902221905 59 292 0.0 1.0 0.00 0.05 0.00 92 1019.4
20260902221725 59 292 0.0 1.0 0.00 0.05 0.00 93 1019.5
20260902221540 59 0 0.0 1.0 0.00 0.05 0.00 93 1019.5
20260902221353 59 0 0.0 1.0 0.00 0.05 0.00 94 1019.4
20260902221212 59 0 0.0 1.0 0.00 0.05 0.00 94 1019.4
20260902221030 58 0 0.0 0.0 0.00 0.05 0.00 95 1019.5
20260902221012 58 0 0.0 0.0 0.00 0.05 0.00 95 1019.5
20260902220833 58 0 0.0 0.0 0.00 0.05 0.00 95 1019.4
20260902220640 58 0 0.0 0.0 0.00 0.05 0.00 95 1019.5
20260902220504 58 0 0.0 0.0 0.00 0.05 0.00 95 1019.5
20260902220325 58 0 0.0 0.0 0.00 0.05 0.00 96 1019.5
20260902220135 58 0 0.0 0.0 0.00 0.05 0.00 96 1019.5
20260902215948 58 0 0.0 0.0 0.00 0.05 0.05 96 1019.5
20260902215759 58 0 0.0 0.0 0.00 0.05 0.05 96 1019.5
20260902215610 58 0 0.0 0.0 0.00 0.05 0.05 96 1019.5
20260902215418 58 0 0.0 0.0 0.00 0.05 0.05 96 1019.5
20260902215220 58 0 0.0 0.0 0.00 0.05 0.05 96 1019.5
20260902215045 58 0 0.0 0.0 0.00 0.05 0.05 96 1019.5
20260902214900 58 0 0.0 0.0 0.00 0.05 0.05 96 1019.5
20260902214705 58 0 0.0 0.0 0.00 0.05 0.05 96 1019.5
20260902214505 58 0 0.0 0.0 0.00 0.05 0.05 96 1019.5
20260902214319 58 0 0.0 0.0 0.00 0.05 0.05 96 1019.4
20260902214135 58 0 0.0 0.0 0.00 0.05 0.05 96 1019.5
20260902213940 58 0 0.0 0.0 0.00 0.05 0.05 96 1019.5
20260902213820 58 0 0.0 0.0 0.00 0.05 0.05 96 1019.5
20260902213750 58 0 0.0 0.0 0.00 0.05 0.05 96 1019.5
20260902213600 58 0 0.0 0.0 0.00 0.05 0.05 96 1019.5
20260902213410 58 0 0.0 0.0 0.00 0.05 0.05 96 1019.5
20260902213220 58 0 0.0 0.0 0.00 0.05 0.05 96 1019.5
20260902213035 58 0 0.0 0.0 0.00 0.05 0.05 96 1019.5
20260902212851 58 0 0.0 0.0 0.00 0.05 0.05 96 1019.5
20260902212705 58 0 0.0 0.0 0.00 0.05 0.05 96 1019.5
20260902212525 58 0 0.0 0.0 0.00 0.05 0.05 96 1019.5
20260902212325 59 0 0.0 0.0 0.00 0.05 0.05 96 1019.5
20260902212130 59 0 0.0 0.0 0.00 0.05 0.05 97 1019.5
20260902211930 59 0 0.0 0.0 0.00 0.05 0.05 97 1019.5
20260902211745 59 0 0.0 0.0 0.00 0.05 0.05 97 1019.6
20260902211605 59 0 0.0 0.0 0.00 0.05 0.05 97 1019.6
20260902211420 59 0 0.0 0.0 0.00 0.05 0.05 97 1019.6
20260902211240 58 0 0.0 0.0 0.00 0.05 0.05 97 1019.6
20260902211050 58 0 0.0 0.0 0.00 0.05 0.05 97 1019.6
20260902210854 58 0 0.0 1.0 0.00 0.05 0.05 97 1019.5
20260902210657 58 0 0.0 1.0 0.00 0.05 0.05 97 1019.6
20260902210520 58 0 0.0 1.0 0.00 0.05 0.05 97 1019.5
20260902210357 58 0 0.0 1.0 0.00 0.05 0.05 97 1019.5
20260902210326 58 0 0.0 1.0 0.00 0.05 0.05 97 1019.5
20260902210145 58 0 0.0 0.0 0.00 0.05 0.05 97 1019.5
20260902205950 58 0 0.0 0.0 0.00 0.05 0.05 97 1019.5
20260902205810 58 0 0.0 0.0 0.00 0.05 0.05 97 1019.6
20260902205615 58 0 0.0 0.0 0.00 0.05 0.05 97 1019.6
20260902205437 58 0 0.0 0.0 0.00 0.05 0.05 97 1019.5
20260902205300 58 0 0.0 0.0 0.00 0.05 0.05 97 1019.5
20260902205120 58 0 0.0 0.0 0.00 0.05 0.05 97 1019.5
20260902204925 58 0 0.0 0.0 0.00 0.05 0.05 97 1019.5
20260902204828 58 0 0.0 0.0 0.00 0.05 0.05 97 1019.5
20260902204740 58 0 0.0 0.0 0.00 0.05 0.05 97 1019.5
20260902204555 58 0 0.0 0.0 0.00 0.05 0.05 97 1019.5
20260902204405 58 0 0.0 0.0 0.00 0.05 0.05 97 1019.5
20260902204220 58 0 0.0 0.0 0.00 0.05 0.05 97 1019.5
20260902204025 58 0 0.0 0.0 0.00 0.05 0.05 97 1019.5
20260902203835 58 0 0.0 0.0 0.00 0.05 0.05 97 1019.5
20260902203650 58 0 0.0 0.0 0.00 0.05 0.05 97 1019.4
20260902203455 58 0 0.0 0.0 0.00 0.05 0.05 97 1019.4
20260902203310 58 0 0.0 0.0 0.00 0.05 0.05 97 1019.4
20260902203132 58 0 0.0 0.0 0.00 0.05 0.05 97 1019.4
20260902203028 58 0 0.0 0.0 0.00 0.05 0.05 97 1019.4
20260902202940 58 0 0.0 0.0 0.00 0.05 0.05 97 1019.4
20260902202745 58 0 0.0 0.0 0.00 0.05 0.05 97 1019.4
20260902202605 58 0 0.0 0.0 0.00 0.05 0.05 97 1019.3
20260902202420 58 0 0.0 0.0 0.00 0.05 0.05 97 1019.4
20260902202225 58 0 0.0 0.0 0.00 0.05 0.05 97 1019.4
20260902202040 59 0 0.0 0.0 0.00 0.05 0.05 97 1019.4
20260902201855 59 0 0.0 0.0 0.00 0.05 0.05 97 1019.5
20260902201710 59 0 0.0 0.0 0.00 0.05 0.05 97 1019.4
20260902201530 59 0 0.0 0.0 0.00 0.05 0.05 97 1019.4
20260902201407 59 0 0.0 0.0 0.00 0.05 0.05 97 1019.4
20260902201335 59 0 0.0 0.0 0.00 0.05 0.05 97 1019.4
20260902201140 59 0 0.0 0.0 0.00 0.05 0.05 97 1019.4
20260902201000 59 0 0.0 0.0 0.00 0.05 0.05 97 1019.4
20260902200815 59 0 0.0 0.0 0.00 0.05 0.05 97 1019.3
20260902200630 59 0 0.0 0.0 0.00 0.05 0.05 97 1019.2
20260902200445 59 0 0.0 0.0 0.00 0.05 0.05 97 1019.3
20260902200305 59 0 0.0 0.0 0.00 0.05 0.05 97 1019.3
20260902200119 59 0 0.0 0.0 0.00 0.05 0.05 96 1019.3
20260902195920 59 0 0.0 0.0 0.00 0.05 0.05 96 1019.3
20260902195737 59 0 0.0 0.0 0.00 0.05 0.05 96 1019.3
20260902195540 59 0 0.0 0.0 0.00 0.05 0.05 96 1019.3
20260902195355 59 0 0.0 0.0 0.00 0.05 0.05 96 1019.2
20260902195200 60 0 0.0 0.0 0.00 0.05 0.05 96 1019.3
20260902195015 60 0 0.0 0.0 0.00 0.05 0.05 96 1019.2
20260902194830 60 0 0.0 0.0 0.00 0.05 0.05 96 1019.3
20260902194640 60 0 0.0 0.0 0.00 0.05 0.05 96 1019.3
20260902194455 60 0 0.0 0.0 0.00 0.05 0.05 96 1019.3
20260902194315 60 0 0.0 0.0 0.00 0.05 0.05 96 1019.3
20260902194120 60 0 0.0 0.0 0.00 0.05 0.05 96 1019.3
20260902194012 60 0 0.0 0.0 0.00 0.05 0.05 96 1019.3
20260902193925 60 0 0.0 0.0 0.00 0.05 0.05 96 1019.3
20260902193740 60 292 0.0 0.0 0.00 0.05 0.05 96 1019.3
20260902193555 60 292 0.0 0.0 0.00 0.05 0.05 96 1019.3
20260902193357 60 292 0.0 0.0 0.00 0.05 0.05 96 1019.2
20260902193205 60 292 0.0 2.0 0.00 0.05 0.05 96 1019.2
20260902193020 60 292 0.0 2.0 0.00 0.05 0.05 96 1019.3
20260902192840 60 292 0.0 2.0 0.00 0.05 0.05 96 1019.3
20260902192700 60 0 0.0 2.0 0.00 0.05 0.05 96 1019.3
20260902192515 60 0 0.0 0.0 0.00 0.05 0.05 96 1019.3
20260902192401 60 0 0.0 0.0 0.00 0.05 0.05 96 1019.3
20260902192330 60 0 0.0 0.0 0.00 0.05 0.05 96 1019.3
20260902192130 60 0 0.0 0.0 0.00 0.05 0.05 96 1019.3
20260902191950 60 0 0.0 0.0 0.00 0.05 0.05 96 1019.3
20260902191810 60 0 0.0 0.0 0.00 0.05 0.05 96 1019.3
20260902191630 60 0 0.0 0.0 0.00 0.05 0.05 96 1019.3
20260902191435 60 0 0.0 0.0 0.00 0.05 0.05 96 1019.2
20260902191255 60 0 0.0 0.0 0.00 0.05 0.05 96 1019.3
20260902191115 60 0 0.0 0.0 0.00 0.05 0.05 96 1019.3
20260902190925 60 0 0.0 0.0 0.00 0.05 0.05 96 1019.2
20260902190730 60 0 0.0 0.0 0.00 0.05 0.05 96 1019.3
20260902190617 60 0 0.0 0.0 0.00 0.05 0.05 96 1019.3
20260902190540 60 0 0.0 0.0 0.00 0.05 0.05 96 1019.3
20260902190345 60 0 0.0 0.0 0.00 0.05 0.05 96 1019.3
20260902190205 60 0 0.0 0.0 0.00 0.05 0.05 96 1019.3
20260902190020 60 0 0.0 0.0 0.00 0.05 0.05 96 1019.4
20260902185830 60 0 0.0 0.0 0.00 0.05 0.05 96 1019.3
20260902185630 60 0 0.0 0.0 0.00 0.05 0.05 96 1019.4
20260902185435 60 0 0.0 0.0 0.00 0.05 0.05 96 1019.4
20260902185240 60 0 0.0 0.0 0.00 0.05 0.05 96 1019.4
20260902185105 60 0 0.0 0.0 0.00 0.05 0.05 95 1019.4
20260902184929 60 0 0.0 0.0 0.00 0.05 0.05 95 1019.4
20260902184857 60 0 0.0 0.0 0.00 0.05 0.05 95 1019.3
20260902184745 60 0 0.0 0.0 0.00 0.05 0.05 95 1019.4
20260902184555 60 0 0.0 0.0 0.00 0.05 0.05 95 1019.3
20260902184405 60 0 0.0 0.0 0.00 0.05 0.05 95 1019.4
20260902184210 60 0 0.0 0.0 0.00 0.05 0.05 95 1019.5
20260902184010 61 0 0.0 0.0 0.00 0.05 0.05 95 1019.4
20260902183835 61 0 0.0 0.0 0.00 0.05 0.05 94 1019.4
20260902183640 61 0 0.0 0.0 0.00 0.05 0.05 95 1019.5
20260902183501 61 0 0.0 0.0 0.00 0.05 0.05 94 1019.4
20260902183325 61 0 0.0 0.0 0.00 0.05 0.05 94 1019.4
20260902183242 61 0 0.0 0.0 0.00 0.05 0.05 94 1019.5
20260902183125 61 0 0.0 0.0 0.00 0.05 0.05 94 1019.4
20260902182929 61 0 0.0 0.0 0.00 0.05 0.05 94 1019.4
20260902182750 61 0 0.0 0.0 0.00 0.05 0.05 94 1019.4
20260902182600 61 0 0.0 0.0 0.00 0.05 0.05 94 1019.4
20260902182415 61 0 0.0 0.0 0.00 0.05 0.05 94 1019.4
20260902182230 61 0 0.0 0.0 0.00 0.05 0.05 93 1019.4
20260902182035 62 0 0.0 0.0 0.00 0.05 0.05 93 1019.4
20260902181840 62 0 0.0 0.0 0.00 0.05 0.05 93 1019.3
20260902181640 62 0 0.0 0.0 0.00 0.05 0.05 93 1019.3
20260902181459 62 0 0.0 0.0 0.00 0.05 0.05 93 1019.3
20260902181305 62 0 0.0 0.0 0.00 0.05 0.05 93 1019.2
20260902181110 62 0 0.0 0.0 0.00 0.05 0.05 93 1019.2
20260902180932 62 0 0.0 0.0 0.00 0.05 0.05 93 1019.3
20260902180756 62 0 0.0 0.0 0.00 0.05 0.05 93 1019.3
20260902180601 63 0 0.0 0.0 0.00 0.05 0.05 93 1019.1
20260902180405 63 0 0.0 0.0 0.00 0.05 0.05 93 1019.1
20260902180205 63 0 0.0 0.0 0.00 0.05 0.05 92 1019.1
20260902180025 63 0 0.0 0.0 0.00 0.05 0.05 92 1019.1
20260902175834 63 0 0.0 0.0 0.00 0.05 0.05 91 1019.1
20260902175822 63 0 0.0 0.0 0.00 0.05 0.05 91 1019.2
20260902175635 63 0 0.0 0.0 0.00 0.05 0.05 91 1019.1
20260902175445 63 0 0.0 0.0 0.00 0.05 0.05 91 1019.1
20260902175255 63 0 0.0 0.0 0.00 0.05 0.05 91 1019.1
20260902175110 63 0 0.0 0.0 0.00 0.05 0.05 90 1019.1
20260902174919 63 0 0.0 0.0 0.00 0.05 0.05 90 1019.0
20260902174720 64 0 0.0 0.0 0.00 0.05 0.05 90 1019.0
20260902174540 64 0 0.0 0.0 0.00 0.05 0.05 90 1019.0
20260902174340 64 0 0.0 0.0 0.00 0.05 0.05 89 1019.1
20260902174237 64 0 0.0 0.0 0.00 0.05 0.05 89 1019.1
20260902174148 64 0 0.0 0.0 0.00 0.05 0.05 89 1019.1
20260902174000 64 0 0.0 0.0 0.00 0.05 0.05 89 1019.1
20260902173820 64 0 0.0 0.0 0.00 0.05 0.05 88 1019.1
20260902173630 64 0 0.0 0.0 0.00 0.05 0.05 88 1019.0
20260902173430 65 0 0.0 0.0 0.00 0.05 0.05 87 1019.0
20260902173235 65 0 0.0 0.0 0.00 0.05 0.05 87 1019.1
20260902173055 65 0 0.0 0.0 0.00 0.05 0.05 86 1019.0
20260902172915 65 0 0.0 0.0 0.00 0.05 0.05 86 1019.0
20260902172720 65 0 0.0 0.0 0.00 0.05 0.05 86 1019.1
20260902172537 66 0 0.0 0.0 0.00 0.05 0.05 85 1019.1
20260902172502 66 0 0.0 0.0 0.00 0.05 0.05 85 1019.1
20260902172400 66 0 0.0 0.0 0.00 0.05 0.05 85 1019.1
20260902172220 66 0 0.0 0.0 0.00 0.05 0.05 85 1019.0
20260902172030 66 0 0.0 0.0 0.00 0.05 0.05 85 1019.2
20260902171850 66 0 0.0 0.0 0.00 0.05 0.05 84 1019.1
20260902171700 66 292 0.0 0.0 0.00 0.05 0.05 84 1019.1
20260902171517 66 292 0.0 0.0 0.02 0.05 0.05 84 1019.1
20260902171320 67 292 0.0 2.0 0.02 0.05 0.05 84 1019.1
20260902171140 67 292 0.0 2.0 0.02 0.05 0.05 84 1019.1
20260902170955 67 292 0.0 2.0 0.02 0.05 0.05 83 1019.1
20260902170832 67 292 0.0 1.0 0.02 0.05 0.05 84 1019.1
20260902170810 67 292 0.0 1.0 0.02 0.05 0.05 84 1019.2
20260902170615 67 292 0.0 1.0 0.03 0.05 0.05 82 1019.1
20260902170435 67 292 0.0 1.0 0.03 0.05 0.05 82 1019.2
20260902170239 67 292 0.0 1.0 0.03 0.05 0.05 82 1019.2
20260902170044 67 292 0.0 0.0 0.03 0.05 0.05 82 1019.1
20260902165850 67 292 0.0 1.0 0.05 0.05 0.05 82 1019.2